Weather in Medvedka

Russia / Orenburg Oblast     52°37′53″N   52°29′49″E
temp.,
°C
wind,
m/s
gust,
m/s
humid.,
%
clouds,
%
prec.,
mm/h
press.,
hPa
HPBL,
m
20 january, wed
wed2023:00−22wsw339998 0.1 101532
02:00−23sw339899 0.0 101647
05:00−21wsw259699 0.0 1017155
08:00−21sw2396100 0.0 101753
11:00−22sw359698 0.0 1019127
14:00−19sw469490 0.0 1020309
17:00−20wsw369694 0.0 1020236
20:00−23sw239891 0.0 102127
21 january, thu
thu2123:00−24sw239990 0.1 102220
02:00−25sw2210096 0.0 102319
05:00−26sw2210094 0.0 102319
08:00−26sw2210099 0.0 102319
11:00−24sw2398100 0.0 102454
14:00−19sw3596100 0.0 1024245
17:00−19sw4697100 0.1 1023203
20:00−19sw4797100 0.0 1023183
22 january, fri
fri2223:00−17sw4797100 0.3 1022239
02:00−15sw4796100 0.3 1021248
05:00−14sw4896100 1.1 1020294
08:00−13ssw4896100 1.0 1019349
11:00−14sw4795100 1.4 1020378
14:00−13sw4592100 0.1 1021418
17:00−15sw3396100 0.1 102156
20:00−18ssw229897 0.0 102320
23 january, sat
sat2323:00−18s229891 0.0 102420
02:00−16sse239693 0.0 102434
05:00−13se359696 0.3 1024155
08:00−11sse5995100 0.8 1023273
11:00−9s5995100 1.6 1023281
14:00−4s61096100 0.6 1022318
17:00+1sw71299100 1.1 1021506
20:00+1sw61198100 0.0 1022524
24 january, sun
sun2423:00+1wsw61299100 0.1 1022462
02:00+1sw61198100 0.0 1022416
05:00+1sw61198100 0.1 1022460
08:00−1sw61198100 0.3 1023365
11:000sw71196100 1.1 1024444
14:00−1sw61197100 1.1 1024453
17:000sw61196100 2.9 1024436
20:000sw51194100 0.9 1026537